This is the latest recevied weather packets stored in our database for station/object KE0LFX. If no packets are shown the sender has not sent any weather packets the latest 10 day(s).
| Time | Temp. | Humidity | Pressure | Rain* | Wind** | Luminosity | Snow |
|---|---|---|---|---|---|---|---|
| 1777650836 | 9.44° C | 61% | 1021.5 hPa | 0 mm | - | 210 W/m² | - |
| 1777650533 | 10° C | 59% | 1021.7 hPa | 0 mm | - | 179 W/m² | - |
| 1777650231 | 10.56° C | 56% | 1021.6 hPa | 0 mm | - | 141 W/m² | - |
| 1777649928 | 10.56° C | 60% | 1021.6 hPa | 0 mm | - | 200 W/m² | - |
| 1777649625 | 10° C | 60% | 1021.5 hPa | 0 mm | - | 126 W/m² | - |
| 1777649320 | 9.44° C | 60% | 1021.4 hPa | 0 mm | - | 150 W/m² | - |
| 1777649018 | 9.44° C | 62% | 1021.5 hPa | 0 mm | - | 139 W/m² | - |
| 1777648716 | 8.89° C | 61% | 1021.5 hPa | 0 mm | - | 150 W/m² | - |
| 1777648411 | 9.44° C | 60% | 1021.7 hPa | 0 mm | - | 196 W/m² | - |
| 1777648108 | 8.89° C | 60% | 1021.6 hPa | 0 mm | - | 177 W/m² | - |
| 1777647805 | 8.89° C | 60% | 1021.7 hPa | 0 mm | - | 179 W/m² | - |
| 1777647501 | 8.89° C | 60% | 1021.8 hPa | 0 mm | - | 241 W/m² | - |
| 1777647198 | 8.89° C | 62% | 1021.6 hPa | 0 mm | - | 164 W/m² | - |
| 1777646895 | 8.89° C | 62% | 1021.7 hPa | 0 mm | - | 141 W/m² | - |
| 1777646590 | 8.89° C | 62% | 1021.8 hPa | 0 mm | - | 158 W/m² | - |
| 1777646287 | 8.33° C | 63% | 1021.6 hPa | 0 mm | - | 151 W/m² | - |
| 1777645984 | 8.89° C | 63% | 1021.6 hPa | 0 mm | - | 121 W/m² | - |
| 1777645681 | 8.89° C | 61% | 1021.6 hPa | 0 mm | - | 174 W/m² | - |
| 1777645377 | 8.89° C | 61% | 1021.6 hPa | 0 mm | - | 163 W/m² | - |
| 1777645072 | 8.33° C | 62% | 1021.9 hPa | 0 mm | - | 161 W/m² | - |
| 1777644769 | 7.78° C | 64% | 1021.6 hPa | 0 mm | - | 138 W/m² | - |
| 1777644467 | 8.33° C | 64% | 1021.7 hPa | 0 mm | - | 124 W/m² | - |
| 1777644163 | 8.33° C | 65% | 1021.5 hPa | 0 mm | - | 170 W/m² | - |
| 1777643859 | 8.33° C | 66% | 1021.7 hPa | 0 mm | - | 163 W/m² | - |
| 1777643558 | 8.33° C | 67% | 1021.6 hPa | 0 mm | - | 144 W/m² | - |
* Rain latest hour (hover to see other rain measurements)
** Current wind speed in m/s (hover to see current wind gust speed)